FW6321 Weather Reports


time (UTC)temp
C
wind
direction
speed
KPH
gust
KPH
rain 1hr
cm
rain 24hr
cm
rain mn
cm
humidity
%
barometer
mb
20260901231631 13 189 1.6 4.8 0.00 0.03 0.00 91 1020.8
20260901231131 13 189 0.0 3.2 0.00 0.03 0.00 91 1020.9
20260901230632 14 189 0.0 4.8 0.00 0.03 0.00 91 1021.0
20260901230132 14 189 1.6 4.8 0.00 0.03 0.00 90 1021.0
20260901225630 14 189 1.6 4.8 0.00 0.03 0.00 90 1021.0
20260901225132 14 189 1.6 4.8 0.00 0.03 0.00 90 1021.0
20260901224631 14 189 1.6 6.4 0.00 0.03 0.00 90 1021.1
20260901224131 14 189 1.6 6.4 0.00 0.03 0.00 90 1021.0
20260901223637 14 190 3.2 8.0 0.00 0.03 0.00 90 1020.9
20260901223132 14 190 3.2 8.0 0.00 0.05 0.00 90 1020.9
20260901223107 14 190 3.2 4.8 0.00 0.15 0.00 89 1021.0
20260901222133 14 193 1.6 4.8 0.00 0.36 0.00 89 1021.0
20260901221631 14 196 1.6 4.8 0.00 0.38 0.00 89 1021.0
20260901221133 14 190 1.6 4.8 0.00 0.38 0.00 89 1020.9
20260901221100 15 194 3.2 4.8 0.00 0.38 0.00 89 1021.0
20260901220835 14 194 3.2 4.8 0.00 0.38 0.00 89 1020.9
20260901215633 15 195 1.6 4.8 0.00 0.38 0.38 89 1020.9
20260901215132 15 194 3.2 4.8 0.00 0.38 0.38 89 1020.9
20260901214631 15 195 3.2 6.4 0.00 0.38 0.38 89 1020.9
20260901214133 15 219 3.2 6.4 0.00 0.38 0.38 89 1021.0
20260901214123 15 197 1.6 6.4 0.00 0.38 0.38 89 1021.0
20260901213132 15 197 1.6 3.2 0.00 0.38 0.38 89 1020.9
20260901212629 15 197 1.6 3.2 0.00 0.38 0.38 89 1020.8
20260901212131 15 202 1.6 3.2 0.00 0.38 0.38 89 1020.8
20260901211630 15 208 1.6 3.2 0.00 0.38 0.38 88 1021.1
20260901211130 15 213 0.0 3.2 0.00 0.38 0.38 88 1021.2
20260901210629 15 213 1.6 3.2 0.00 0.38 0.38 88 1021.3
20260901210130 15 213 1.6 6.4 0.00 0.38 0.38 88 1021.4
20260901205630 15 213 3.2 6.4 0.00 0.38 0.38 88 1021.4
20260901205127 15 232 3.2 4.8 0.00 0.38 0.38 87 1021.5
20260901204629 15 224 1.6 4.8 0.00 0.38 0.38 87 1021.5
20260901204128 15 202 1.6 3.2 0.00 0.38 0.38 87 1021.4
20260901203628 15 202 1.6 4.8 0.00 0.38 0.38 86 1021.4
20260901203128 15 202 1.6 4.8 0.00 0.38 0.38 86 1021.4
20260901202629 15 202 1.6 4.8 0.00 0.38 0.38 85 1021.4
20260901202326 15 202 1.6 4.8 0.00 0.38 0.38 85 1021.4
20260901201831 15 202 3.2 4.8 0.00 0.38 0.38 85 1021.3
20260901200625 15 202 3.2 4.8 0.00 0.38 0.38 84 1021.2
20260901200617 15 202 3.2 4.8 0.00 0.38 0.38 83 1021.4
20260901195625 15 202 3.2 4.8 0.00 0.38 0.38 83 1021.3
20260901195328 15 202 1.6 3.2 0.00 0.38 0.38 82 1021.3
20260901194837 15 202 1.6 4.8 0.00 0.38 0.38 81 1021.4
20260901193623 15 202 1.6 3.2 0.00 0.38 0.38 80 1021.1
20260901193120 16 202 1.6 3.2 0.00 0.38 0.38 79 1021.1
20260901192620 16 202 0.0 1.6 0.00 0.38 0.38 79 1021.0
20260901192605 16 202 0.0 4.8 0.00 0.38 0.38 78 1021.0
20260901191633 16 202 1.6 3.2 0.00 0.38 0.38 78 1021.0
20260901191618 16 202 1.6 4.8 0.00 0.38 0.38 78 1021.0
20260901190613 16 202 1.6 4.8 0.00 0.38 0.38 77 1021.1
20260901190543 17 202 1.6 4.8 0.00 0.38 0.38 76 1021.0
20260901185615 17 205 1.6 4.8 0.00 0.38 0.38 76 1021.0
20260901185112 17 202 3.2 4.8 0.00 0.38 0.38 76 1021.0
20260901184610 17 211 3.2 6.4 0.00 0.38 0.38 75 1021.0
20260901184109 17 210 3.2 6.4 0.00 0.38 0.38 75 1021.0
20260901183609 17 215 3.2 6.4 0.00 0.38 0.38 75 1021.0
20260901183111 18 239 1.6 6.4 0.00 0.38 0.38 74 1020.9
20260901182611 18 234 3.2 6.4 0.00 0.38 0.38 74 1020.8
20260901182110 18 229 3.2 11.3 0.00 0.38 0.38 73 1020.8
20260901181614 18 224 4.8 11.3 0.00 0.38 0.38 73 1020.8
20260901181111 18 191 4.8 14.5 0.00 0.38 0.38 73 1020.9
20260901180612 18 252 4.8 14.5 0.00 0.38 0.38 72 1020.9
20260901180113 18 265 4.8 11.3 0.00 0.38 0.38 72 1020.9
20260901175610 18 235 4.8 11.3 0.00 0.38 0.38 72 1020.8
20260901175112 18 294 4.8 11.3 0.00 0.38 0.38 71 1020.8
20260901174609 19 247 6.4 12.9 0.00 0.38 0.38 71 1020.8
20260901174552 19 229 6.4 12.9 0.00 0.38 0.38 70 1020.9
20260901173609 19 244 8.0 12.9 0.00 0.38 0.38 70 1020.8
20260901173112 19 227 6.4 17.7 0.00 0.38 0.38 70 1020.9
20260901172612 19 243 6.4 17.7 0.00 0.38 0.38 70 1021.0
20260901172108 20 270 6.4 14.5 0.00 0.38 0.38 70 1021.0
20260901171611 20 244 9.7 22.5 0.00 0.38 0.38 69 1021.0
20260901171110 20 245 9.7 22.5 0.00 0.38 0.38 69 1020.9
20260901170611 20 240 9.7 20.9 0.00 0.38 0.38 68 1021.0
20260901170109 20 270 12.9 22.5 0.00 0.38 0.38 68 1021.0
20260901165609 20 233 11.3 22.5 0.00 0.38 0.38 68 1021.0
20260901165111 20 232 9.7 20.9 0.00 0.38 0.38 68 1021.1
20260901164611 20 236 9.7 19.3 0.00 0.38 0.38 68 1021.0
20260901164109 20 233 8.0 16.1 0.00 0.38 0.38 68 1020.9
20260901163613 20 212 9.7 19.3 0.00 0.38 0.38 69 1020.9
20260901163109 20 231 9.7 20.9 0.00 0.38 0.38 68 1020.9
20260901162611 20 247 11.3 20.9 0.00 0.38 0.38 68 1020.8
20260901162602 20 220 11.3 20.9 0.00 0.38 0.38 67 1020.8
20260901161610 20 246 11.3 20.9 0.00 0.38 0.38 67 1020.9
20260901161112 20 242 12.9 22.5 0.00 0.41 0.38 67 1020.9
20260901160609 20 233 12.9 22.5 0.00 0.41 0.38 66 1020.9
20260901160110 20 242 12.9 25.7 0.00 0.41 0.38 66 1020.9
20260901155612 20 218 11.3 25.7 0.00 0.41 0.38 66 1020.8
20260901155110 20 229 9.7 22.5 0.00 0.41 0.38 66 1020.9
20260901154610 20 218 11.3 22.5 0.00 0.41 0.38 65 1020.9
20260901154107 20 248 9.7 22.5 0.00 0.41 0.38 66 1020.8
20260901153611 20 221 9.7 19.3 0.00 0.41 0.38 66 1020.8
20260901153108 20 233 9.7 19.3 0.00 0.41 0.38 65 1020.8
20260901152612 20 232 9.7 20.9 0.00 0.41 0.38 66 1020.8
20260901152605 20 235 9.7 20.9 0.00 0.41 0.38 65 1020.8
20260901151607 20 278 6.4 19.3 0.00 0.41 0.38 64 1020.8
20260901151556 21 279 8.0 17.7 0.00 0.41 0.38 64 1020.7
20260901150609 21 177 11.3 20.9 0.00 0.41 0.38 63 1020.8
20260901150108 21 214 11.3 20.9 0.00 0.41 0.38 63 1020.9
20260901145607 21 233 8.0 19.3 0.00 0.41 0.38 63 1020.8
20260901145557 21 243 8.0 19.3 0.00 0.41 0.38 64 1020.8
20260901145049 21 220 9.7 22.5 0.00 0.41 0.38 63 1020.8
20260901144105 21 222 8.0 22.5 0.00 0.41 0.38 65 1020.8
20260901143606 21 255 9.7 20.9 0.00 0.41 0.38 63 1020.8
20260901143559 21 175 12.9 27.4 0.00 0.41 0.38 63 1020.8
20260901142603 21 249 12.9 27.4 0.00 0.41 0.38 62 1020.8
20260901142557 21 229 11.3 20.9 0.00 0.41 0.38 63 1020.9
20260901141557 21 185 12.9 24.1 0.00 0.41 0.38 64 1020.9
20260901141101 21 236 14.5 24.1 0.00 0.41 0.38 63 1020.9
20260901140602 21 251 12.9 20.9 0.00 0.41 0.38 62 1020.9
20260901140057 21 255 11.3 20.9 0.00 0.41 0.38 61 1020.9
20260901135600 21 233 12.9 27.4 0.00 0.41 0.38 62 1020.9
20260901135548 22 231 11.3 27.4 0.00 0.41 0.38 61 1021.0
20260901134558 22 237 9.7 17.7 0.00 0.41 0.38 62 1020.9
20260901134056 21 233 11.3 22.5 0.00 0.41 0.38 63 1020.9
20260901133556 21 240 11.3 22.5 0.00 0.41 0.38 62 1020.9
20260901133050 21 282 11.3 27.4 0.00 0.41 0.38 65 1020.9
20260901132544 21 222 12.9 27.4 0.00 0.41 0.38 62 1021.0
20260901132043 21 269 11.3 25.7 0.00 0.41 0.38 65 1020.8
20260901131546 21 239 12.9 25.7 0.00 0.41 0.38 64 1020.9
20260901131045 21 199 12.9 24.1 0.00 0.41 0.38 63 1020.9
20260901130547 21 267 9.7 22.5 0.00 0.41 0.38 64 1020.9
20260901130045 21 264 11.3 25.7 0.00 0.41 0.38 64 1020.9
20260901125543 21 241 12.9 25.7 0.00 0.41 0.38 63 1020.9
20260901125043 21 221 14.5 25.7 0.00 0.41 0.38 65 1020.9
20260901124544 21 229 14.5 25.7 0.00 0.41 0.38 62 1020.8
20260901124044 21 243 12.9 25.7 0.00 0.41 0.38 63 1020.8
20260901123541 21 245 12.9 25.7 0.00 0.41 0.38 62 1020.8
20260901123044 21 235 9.7 22.5 0.00 0.41 0.38 63 1020.9
20260901122543 22 227 8.0 20.9 0.00 0.41 0.38 62 1020.8
20260901122042 21 270 11.3 20.9 0.00 0.41 0.38 63 1020.9
20260901121541 21 222 12.9 24.1 0.00 0.41 0.38 63 1020.9
20260901121041 20 216 16.1 30.6 0.00 0.41 0.38 64 1020.9
20260901120542 21 287 17.7 30.6 0.00 0.41 0.38 64 1021.0
20260901120535 20 162 17.7 29.0 0.00 0.41 0.38 65 1021.0
20260901115541 20 244 17.7 29.0 0.00 0.41 0.38 65 1021.0
20260901115037 20 250 14.5 29.0 0.00 0.41 0.38 65 1021.0
20260901114538 20 233 12.9 22.5 0.00 0.41 0.38 65 1020.9
20260901114523 20 276 14.5 27.4 0.00 0.41 0.38 64 1020.9
20260901114243 20 241 14.5 27.4 0.00 0.41 0.38 64 1020.9
20260901113037 20 179 12.9 27.4 0.00 0.41 0.38 65 1020.9
20260901112537 20 244 12.9 32.2 0.00 0.41 0.38 65 1020.9
20260901112050 21 277 14.5 32.2 0.00 0.41 0.38 65 1020.7
20260901111537 21 149 14.5 29.0 0.00 0.41 0.38 65 1020.7
20260901111038 20 252 16.1 29.0 0.00 0.41 0.38 66 1020.8
20260901110533 21 255 12.9 27.4 0.00 0.41 0.38 66 1020.9
20260901110035 21 251 12.9 27.4 0.00 0.41 0.38 67 1020.7
20260901105536 21 240 14.5 27.4 0.00 0.41 0.38 67 1020.7
20260901105033 20 234 12.9 27.4 0.00 0.41 0.38 66 1020.7
20260901104536 20 249 12.9 25.7 0.00 0.41 0.38 66 1020.8
20260901104034 20 251 11.3 22.5 0.00 0.41 0.38 68 1020.7
20260901103534 20 224 11.3 20.9 0.00 0.41 0.38 70 1020.7
20260901103035 20 270 11.3 20.9 0.00 0.41 0.38 69 1020.8
20260901102533 20 236 12.9 24.1 0.00 0.41 0.38 71 1020.8
20260901102522 19 221 11.3 24.1 0.00 0.41 0.38 69 1020.8
20260901101533 20 284 12.9 24.1 0.00 0.41 0.38 69 1020.8
20260901101031 20 301 11.3 24.1 0.00 0.41 0.38 70 1020.6
20260901100532 20 266 9.7 22.5 0.00 0.41 0.38 70 1020.8
20260901100521 20 250 12.9 24.1 0.00 0.41 0.38 74 1020.7
20260901095531 20 217 12.9 24.1 0.00 0.41 0.38 72 1020.6
20260901095033 19 258 12.9 24.1 0.00 0.41 0.38 74 1020.7
20260901094530 19 231 14.5 24.1 0.00 0.41 0.38 73 1020.7
20260901094519 20 237 12.9 22.5 0.00 0.41 0.38 73 1020.7
20260901093532 20 233 11.3 22.5 0.00 0.41 0.38 75 1020.7
20260901093032 20 239 9.7 24.1 0.00 0.41 0.38 76 1020.5
20260901092532 19 264 12.9 25.7 0.00 0.41 0.38 76 1020.6
20260901092515 19 182 12.9 25.7 0.00 0.41 0.38 76 1020.6
20260901091531 19 245 11.3 22.5 0.00 0.41 0.38 77 1020.5
20260901091516 18 237 11.3 20.9 0.00 0.41 0.38 79 1020.4
20260901090533 18 266 12.9 20.9 0.00 0.41 0.38 78 1020.4
20260901090521 18 260 12.9 20.9 0.00 0.41 0.38 80 1020.5
20260901085532 18 254 12.9 25.7 0.00 0.41 0.38 81 1020.4
20260901085030 18 248 12.9 25.7 0.00 0.41 0.38 81 1020.4
20260901084532 18 226 11.3 25.7 0.00 0.41 0.38 81 1020.4
20260901084032 18 233 9.7 20.9 0.00 0.41 0.38 83 1020.3
20260901083533 18 243 9.7 20.9 0.00 0.41 0.38 85 1020.3
20260901083031 18 204 11.3 20.9 0.00 0.41 0.38 86 1020.1
20260901082532 18 245 9.7 20.9 0.00 0.41 0.38 88 1020.2
20260901082514 17 206 9.7 19.3 0.00 0.41 0.38 90 1020.0
20260901082009 17 279 8.0 19.3 0.00 0.41 0.38 94 1019.8
20260901081032 17 226 4.8 14.5 0.00 0.41 0.38 95 1019.9
20260901080531 17 246 6.4 14.5 0.00 0.41 0.38 96 1019.8
20260901080509 17 239 6.4 14.5 0.00 0.41 0.38 96 1019.8
20260901080016 16 249 6.4 16.1 0.00 0.41 0.38 97 1019.7
20260901075031 16 249 9.7 16.1 0.00 0.41 0.38 97 1019.6
20260901074534 16 272 9.7 16.1 0.00 0.41 0.38 97 1019.6
20260901074030 16 243 8.0 16.1 0.00 0.41 0.38 98 1019.4
20260901073533 16 243 8.0 14.5 0.00 0.41 0.38 98 1019.4
20260901073031 17 255 6.4 14.5 0.00 0.41 0.38 98 1019.4
20260901072534 17 226 4.8 11.3 0.00 0.41 0.38 98 1019.3
20260901072031 17 229 4.8 11.3 0.00 0.41 0.38 98 1019.3
20260901071529 17 239 3.2 11.3 0.00 0.41 0.38 99 1019.3
20260901071220 17 227 4.8 11.3 0.00 0.41 0.38 98 1019.2
20260901070935 17 204 4.8 9.7 0.00 0.41 0.38 98 1019.2
20260901070722 17 229 3.2 8.0 0.00 0.41 0.38 98 1019.3
20260901065025 17 200 3.2 8.0 0.00 0.41 0.38 98 1019.2
20260901064525 16 224 1.6 4.8 0.00 0.41 0.38 98 1019.1
20260901064026 16 218 1.6 4.8 0.00 0.41 0.38 98 1019.0
20260901063954 16 228 3.2 4.8 0.00 0.43 0.38 98 1019.0
20260901063726 16 226 1.6 4.8 0.00 0.41 0.38 98 1019.0
20260901062527 16 225 1.6 4.8 0.00 0.43 0.38 98 1018.9
20260901062022 16 200 1.6 4.8 0.00 0.43 0.38 98 1018.9
20260901061524 16 218 1.6 4.8 0.00 0.43 0.38 98 1018.8
20260901061024 16 229 3.2 6.4 0.00 0.43 0.38 98 1018.9
20260901060524 16 220 1.6 6.4 0.00 0.43 0.38 98 1018.8
20260901060022 16 186 3.2 6.4 0.00 0.43 0.38 98 1018.8
20260901055943 16 169 3.2 8.0 0.00 0.53 0.38 98 1018.8
20260901055928 16 169 1.6 4.8 0.00 0.51 0.38 98 1018.7
20260901055717 16 199 1.6 6.4 0.00 0.46 0.38 98 1018.8
20260901054514 16 195 4.8 8.0 0.00 0.53 0.38 98 1018.7
20260901054006 16 184 4.8 9.7 0.00 0.53 0.38 98 1018.7
20260901053005 16 164 4.8 9.7 0.00 0.53 0.38 98 1018.7
20260901052511 16 177 3.2 6.4 0.00 0.53 0.38 98 1018.7
20260901052005 16 170 3.2 6.4 0.00 0.53 0.38 98 1018.6
20260901051504 16 169 3.2 6.4 0.00 0.53 0.38 98 1018.5
20260901051006 16 169 3.2 6.4 0.00 0.53 0.38 98 1018.5
20260901050504 16 200 4.8 8.0 0.00 0.53 0.38 98 1018.4
20260901050003 16 199 3.2 8.0 0.00 0.53 0.38 98 1018.5
20260901045506 16 183 3.2 8.0 0.00 0.53 0.38 98 1018.4
20260901045004 16 197 3.2 9.7 0.00 0.53 0.38 98 1018.4
20260901044506 16 194 3.2 9.7 0.00 0.53 0.38 98 1018.4
20260901044003 16 216 3.2 6.4 0.00 0.53 0.38 98 1018.5
20260901043504 16 215 3.2 6.4 0.00 0.53 0.38 98 1018.4
20260901043437 16 220 3.2 9.7 0.00 0.53 0.38 98 1018.3
20260901042503 16 178 4.8 9.7 0.00 0.53 0.38 98 1018.3
20260901042002 16 186 3.2 9.7 0.00 0.53 0.38 98 1018.1
20260901041949 16 191 3.2 8.0 0.00 0.53 0.38 98 1018.1
20260901041003 16 186 4.8 8.0 0.00 0.53 0.38 98 1018.1
20260901040505 16 187 4.8 11.3 0.00 0.53 0.38 98 1018.0
20260901040007 16 182 3.2 11.3 0.00 0.53 0.38 98 1018.0
20260901035945 16 185 3.2 6.4 0.03 0.53 0.38 98 1017.9
20260901035004 16 228 3.2 6.4 0.03 0.53 0.38 98 1018.1
20260901034503 16 214 3.2 9.7 0.03 0.53 0.38 98 1018.1
20260901034431 16 195 3.2 6.4 0.03 0.53 0.38 98 1018.0
20260901034422 16 216 3.2 6.4 0.03 0.53 0.38 98 1018.0
20260901034204 16 219 4.8 9.7 0.03 0.53 0.38 98 1017.9
20260901032506 16 225 3.2 8.0 0.03 0.53 0.38 98 1018.0
20260901032004 16 222 3.2 9.7 0.03 0.53 0.38 97 1018.0
20260901031504 16 191 3.2 9.7 0.03 0.53 0.38 97 1017.9
20260901031004 16 195 3.2 6.4 0.03 0.53 0.38 97 1017.9
20260901030505 16 202 3.2 8.0 0.03 0.53 0.38 97 1017.9
20260901030004 16 199 4.8 9.7 0.03 0.53 0.38 97 1017.9
20260901025504 16 182 4.8 9.7 0.00 0.51 0.36 97 1017.8
20260901024957 16 198 4.8 8.0 0.00 0.51 0.36 97 1017.7
20260901024458 16 188 3.2 8.0 0.00 0.51 0.36 97 1017.8
20260901023955 16 199 3.2 8.0 0.00 0.51 0.36 97 1017.8
20260901023458 16 201 4.8 8.0 0.00 0.51 0.36 97 1017.7
20260901022954 16 210 3.2 8.0 0.00 0.51 0.36 97 1017.6
20260901022456 16 186 3.2 8.0 0.00 0.51 0.36 97 1017.6
20260901021959 16 218 3.2 6.4 0.00 0.51 0.36 97 1017.6
20260901021457 16 214 3.2 8.0 0.00 0.51 0.36 97 1017.7
20260901020958 16 230 3.2 8.0 0.00 0.51 0.36 97 1017.7
20260901020929 16 199 3.2 8.0 0.00 0.51 0.36 97 1017.6
20260901015956 16 193 3.2 8.0 0.00 0.51 0.36 97 1017.6
20260901015932 16 177 3.2 8.0 0.00 0.51 0.36 97 1017.6
20260901015436 15 175 3.2 6.4 0.00 0.51 0.36 97 1017.5
20260901014931 15 185 3.2 6.4 0.00 0.51 0.36 97 1017.6
20260901013954 15 187 1.6 6.4 0.00 0.51 0.36 96 1017.6
20260901013454 15 205 1.6 4.8 0.00 0.51 0.36 96 1017.5
20260901012950 15 206 1.6 4.8 0.00 0.51 0.36 96 1017.5
20260901012452 15 181 0.0 3.2 0.00 0.51 0.36 96 1017.5
20260901011949 15 168 0.0 3.2 0.00 0.51 0.36 96 1017.4
20260901011914 15 168 3.2 8.0 0.00 0.51 0.36 96 1017.5
20260901011652 15 168 1.6 8.0 0.00 0.51 0.36 96 1017.4
20260901010447 15 177 3.2 6.4 0.00 0.51 0.36 96 1017.5
20260901005948 15 183 3.2 8.0 0.00 0.51 0.36 96 1017.6
20260901005448 15 187 4.8 9.7 0.00 0.51 0.36 96 1017.6
20260901004949 15 199 4.8 9.7 0.00 0.51 0.36 95 1017.5
20260901004448 15 181 3.2 8.0 0.00 0.51 0.36 95 1017.5
20260901003944 15 185 3.2 6.4 0.00 0.51 0.36 95 1017.5
20260901003444 15 186 3.2 8.0 0.00 0.51 0.36 95 1017.4
20260901002944 15 188 4.8 8.0 0.00 0.51 0.36 95 1017.5
20260901002925 15 172 4.8 6.4 0.00 0.51 0.36 95 1017.5
20260901001946 15 183 3.2 6.4 0.00 0.51 0.36 95 1017.5
20260901001444 15 183 3.2 6.4 0.00 0.51 0.36 95 1017.5
20260901000945 15 188 3.2 6.4 0.00 0.51 0.36 95 1017.4
20260901000450 15 199 3.2 8.0 0.00 0.51 0.36 94 1017.4
20260831235946 15 201 3.2 8.0 0.00 0.51 0.36 95 1017.4
20260831235444 16 183 4.8 8.0 0.00 0.51 0.36 94 1017.3
20260831234945 16 183 4.8 9.7 0.00 0.51 0.36 94 1017.4
20260831234443 16 187 4.8 11.3 0.00 0.51 0.36 94 1017.3
20260831233944 16 191 4.8 11.3 0.00 0.51 0.36 94 1017.4
20260831233446 16 185 4.8 8.0 0.00 0.51 0.36 94 1017.4
20260831232945 16 172 4.8 12.9 0.05 0.51 0.36 94 1017.4
20260831232443 16 181 4.8 12.9 0.15 0.51 0.36 93 1017.3
20260831231941 16 180 4.8 8.0 0.36 0.51 0.36 93 1017.4